This is the latest recevied weather packets stored in our database for station/object NA9VY-8. If no packets are shown the sender has not sent any weather packets the latest 10 day(s).
| Time | Temp. | Humidity | Pressure | Rain* | Wind** | Luminosity | Snow |
|---|---|---|---|---|---|---|---|
| 1777912566 | 20.56° C | 67% | 1011.5 hPa | 0 mm | - | 308 W/m² | - |
| 1777912263 | 20.56° C | 68% | 1011.8 hPa | 0 mm | - | 259 W/m² | - |
| 1777911959 | 20.56° C | 68% | 1011.8 hPa | 0 mm | - | 306 W/m² | - |
| 1777911655 | 20° C | 71% | 1011.9 hPa | 0 mm | - | 341 W/m² | - |
| 1777911351 | 20° C | 68% | 1011.9 hPa | 0 mm | - | 384 W/m² | - |
| 1777911049 | 20° C | 70% | 1011.9 hPa | 0 mm | - | 482 W/m² | - |
| 1777910746 | 20° C | 67% | 1012 hPa | 0 mm | - | 401 W/m² | - |
| 1777910443 | 20° C | 67% | 1011.8 hPa | 0 mm | - | 390 W/m² | - |
| 1777910139 | 19.44° C | 68% | 1011.8 hPa | 0 mm | - | 678 W/m² | - |
| 1777909838 | 18.89° C | 69% | 1011.8 hPa | 0 mm | - | 263 W/m² | - |
| 1777909533 | 18.89° C | 70% | 1012.2 hPa | 0 mm | - | 241 W/m² | - |
| 1777909231 | 19.44° C | 71% | 1012.1 hPa | 0 mm | - | 400 W/m² | - |
| 1777908929 | 18.89° C | 71% | 1012.1 hPa | 0 mm | - | 558 W/m² | - |
| 1777908627 | 18.33° C | 70% | 1012.1 hPa | 0 mm | - | 273 W/m² | - |
| 1777908323 | 18.33° C | 72% | 1012.4 hPa | 0 mm | - | 171 W/m² | - |
| 1777908020 | 17.78° C | 72% | 1012.3 hPa | 0 mm | - | 150 W/m² | - |
| 1777907715 | 18.33° C | 72% | 1012.4 hPa | 0 mm | - | 147 W/m² | - |
| 1777907410 | 18.33° C | 72% | 1012.6 hPa | 0 mm | - | 159 W/m² | - |
| 1777907108 | 17.78° C | 73% | 1012.5 hPa | 0 mm | - | 152 W/m² | - |
| 1777906805 | 17.78° C | 72% | 1012.2 hPa | 0 mm | - | 95 W/m² | - |
| 1777906503 | 18.33° C | 71% | 1012.1 hPa | 0 mm | - | 67 W/m² | - |
| 1777906198 | 18.33° C | 70% | 1012.8 hPa | 0 mm | - | 109 W/m² | - |
| 1777905895 | 18.89° C | 68% | 1012.8 hPa | 0 mm | - | 179 W/m² | - |
| 1777905592 | 18.89° C | 68% | 1012.6 hPa | 0 mm | - | 137 W/m² | - |
| 1777905288 | 18.89° C | 69% | 1012.4 hPa | 0 mm | - | 147 W/m² | - |
* Rain latest hour (hover to see other rain measurements)
** Current wind speed in m/s (hover to see current wind gust speed)